Find Starlink 6283

NORAD ID: 56406 Int'l Des: 2023-061 Owner: SPXS Country: US Constellation: starlink operational
LEOCIRCULAR

リアルタイム位置

3D地球を読み込み中...

Starlink 6283について

説明を読み込み中...

次回通過

Passes for default location (London). Set your location on the main map for personalized predictions.

高度履歴

Loading altitude history...

軌道要素

1 56406U 23061AJ 26107.02602902 .00000769 00000-0 38359-4 0 9994
2 56406 43.0040 330.8723 0001231 265.0061 95.0650 15.26743353162730
Epoch: Apr 17, 2026 • Age: 17 hours

現在のステータス

高度 492.2 km
速度 7.62 km/s
衛星直下点 -27.79°S, 178.84°W
打ち上げ日 May 4, 2023
運用期間 2.9 years
タイプ internet

技術仕様

分類 Payload
質量 305.00 kg
乾燥質量 290.00 kg
総質量 305.00 kg
長さ 0.20 m
直径 2.80 m
スパン 9.00 m
形状 Box + pan
製造者 SPXS
バスタイプ Starlink
フェーズステータス In Orbit
所有者/国 SPXS/US

Most Searched